Camp Douglas, WI

10:42 PM CST on February 21, 2017 (GMT -0600)
Volk

Weather History for KVOK - November, 2012

Change the Weather History Date:

Wednesday, November 28, 2012

  Actual Average Record
Temperature  
Mean Temperature 24 °F -  
Max Temperature 37 °F 36 °F 59 °F (2006)
Min Temperature 12 °F 24 °F 8 °F (2013)
Degree Days  
Heating Degree Days 40    
Moisture  
Dew Point 17 °F    
Average Humidity 74    
Maximum Humidity 93    
Minimum Humidity 52    
Precipitation  
Precipitation 0.00 in - - ()
Sea Level Pressure  
Sea Level Pressure 30.29 in    
Wind  
Wind Speed 5 mph (WSW)    
Max Wind Speed 8 mph    
Max Gust Speed -    
Visibility 10 miles    
Events      
Averages and records for this station are not official NWS values.
T = Trace of Precipitation, MM = Missing Value Source: NWS Daily Summary

Daily Weather History Graph

Daily Weather History Graph

Search for Another Location

Airport or City:

Trip Planner

Search our weather history database for the weather conditions in past years. The results will help you decide how hot, cold, wet, or windy it might be!

Date:

Astronomy

Nov. 28, 2012 Rise Set
Actual Time 7:12 AM CST 4:25 PM CST
Civil Twilight 6:40 AM CST 4:57 PM CST
Nautical Twilight 6:04 AM CST 5:33 PM CST
Astronomical Twilight 5:30 AM CST 6:08 PM CST
Moon 4:40 PM CST (11/28) 7:10 AM CST (11/28)
Length of Visible Light 10h 17m
Length of Day
9h 12m
Full, 100% of the Moon is Illuminated
Nov 28
Full
Dec 6
Last Quarter
Dec 13
New
Dec 19
First Quarter
Dec 28
Full

Hourly Weather History & Observations

Time (CST) Temp. Windchill Dew Point Humidity Pressure Visibility Wind Dir Wind Speed Gust Speed Precip Events Conditions
12:55 AM 20.8 °F 12.1 °F 12.9 °F 71% 30.23 in 10.0 mi WNW 6.9 mph - N/A   Clear
1:55 AM 18.5 °F 10.4 °F 12.4 °F 77% 30.25 in 10.0 mi WNW 5.8 mph - N/A   Clear
2:55 AM 17.1 °F 6.6 °F 11.7 °F 79% 30.27 in 10.0 mi WNW 8.1 mph - N/A   Clear
3:55 AM 16.0 °F 5.3 °F 11.7 °F 83% 30.28 in 10.0 mi West 8.1 mph - N/A   Clear
4:55 AM 12.9 °F 3.8 °F 10.0 °F 88% 30.30 in 10.0 mi WSW 5.8 mph - N/A   Clear
5:55 AM 16.0 °F - 13.6 °F 90% 30.32 in 10.0 mi Calm Calm - N/A   Clear
6:55 AM 14.0 °F - 12.2 °F 93% 30.34 in 10.0 mi Calm Calm - N/A   Partly Cloudy
7:33 AM 12.2 °F - 10.4 °F 92% 30.31 in 10.0 mi Calm Calm - N/A   Mostly Cloudy
7:55 AM 15.8 °F - 14.0 °F 93% 30.36 in 10.0 mi Calm Calm - N/A   Overcast
8:55 AM 24.8 °F 19.1 °F 21.2 °F 86% 30.38 in 10.0 mi West 4.6 mph - N/A   Overcast
9:55 AM 28.4 °F 21.2 °F 21.2 °F 74% 30.38 in 10.0 mi West 6.9 mph - N/A   Scattered Clouds
10:55 AM 32.0 °F 27.5 °F 21.2 °F 64% 30.36 in 10.0 mi NNW 4.6 mph - N/A   Partly Cloudy
11:55 AM 33.8 °F 29.6 °F 21.2 °F 60% 30.35 in 10.0 mi Variable 4.6 mph - N/A   Scattered Clouds
12:55 PM 35.6 °F - 21.2 °F 56% 30.32 in 10.0 mi Calm Calm - N/A   Scattered Clouds
1:55 PM 37.4 °F 34.9 °F 21.2 °F 52% 30.30 in 10.0 mi Variable 3.5 mph - N/A   Scattered Clouds
2:55 PM 37.4 °F 33.8 °F 21.2 °F 52% 30.28 in 10.0 mi West 4.6 mph - N/A   Mostly Cloudy
3:55 PM 33.8 °F 27.7 °F 21.2 °F 60% 30.28 in 10.0 mi SW 6.9 mph - N/A   Mostly Cloudy
4:55 PM 32.0 °F 27.5 °F 19.4 °F 60% 30.27 in 10.0 mi SW 4.6 mph - N/A   Mostly Cloudy
5:55 PM 26.6 °F - 17.6 °F 69% 30.26 in 10.0 mi Calm Calm - N/A   Mostly Cloudy
6:55 PM 23.0 °F - 17.6 °F 80% 30.26 in 10.0 mi Calm Calm - N/A   Scattered Clouds
7:55 PM 23.0 °F - 17.6 °F 80% 30.25 in 10.0 mi Calm Calm - N/A   Scattered Clouds
8:55 PM 28.4 °F 21.2 °F 19.4 °F 69% 30.22 in 10.0 mi SSE 6.9 mph - N/A   Scattered Clouds
9:55 PM 26.6 °F 22.6 °F 21.2 °F 80% 30.22 in 10.0 mi SE 3.5 mph - N/A   Mostly Cloudy
10:55 PM 28.4 °F 22.2 °F 21.2 °F 74% 30.19 in 10.0 mi ESE 5.8 mph - N/A   Mostly Cloudy
11:55 PM 32.0 °F 28.7 °F 21.2 °F 64% 30.18 in 10.0 mi SE 3.5 mph - N/A   Mostly Cloudy